Temp
41 41 41 41 40 40 39 40 41 41 41 42 43 42 42 43 43 43 43 43 43 44
39 38 38 39 40 39 40 40 40 40 40 41 41 43 42 40 40 42 42 42 43 43
36 36 37 37 36 36 38 38 39 39 39 40 41 41 42 40 40 39 39 40 42 43
33 34 34 34 34 34 36 36 37 37 38 38 39 41 40 41 40 38 37 38 38 40
32 32 30 29 30 32 31 33 35 36 37 37 38 40 40 39 39 39 37 36 37 37
28 28 24 23 24 26 26 27 31 34 34 35 35 37 39 40 38 39 38 37 36 37
23 23 22 20 20 20 22 25 26 28 29 30 33 37 37 39 39 38 38 37 36 36
17 18 17 17 17 19 20 22 23 24 26 29 34 36 36 38 38 37 35 35 35 36
14 14 14 15 15 16 18 20 22 22 25 26 32 33 36 36 37 36 34 33 35 35
11 10 11 12 13 14 16 19 19 22 24 25 29 32 35 35 36 35 35 34 34 34
9 8 10 10 11 13 17 18 20 21 22 24 27 32 35 35 34 34 33 34 34 34
8 7 8 8 11 14 16 18 19 21 22 22 25 30 33 34 33 33 33 32 33 33
9 8 8 12 12 15 16 18 20 20 22 22 23 26 30 32 33 32 32 33 33 33
9 11 13 13 14 15 15 16 16 18 20 22 22 23 28 30 30 29 31 32 32 33
MSLP
1030.17 1029.73 1029.27 1028.85 1028.24 1027.58 1027.00 1026.38 1025.62 1024.80 1023.88 1022.99 1022.12 1021.37 1020.51 1019.65 1019.38 1018.87 1018.58 1018.31 1018.05 1017.66
1030.93 1030.60 1030.19 1029.58 1028.93 1028.18 1027.48 1026.85 1026.06 1025.34 1024.47 1023.45 1022.69 1021.96 1021.30 1020.54 1019.90 1019.42 1018.96 1018.52 1018.20 1018.01
1031.81 1031.39 1031.03 1030.34 1029.59 1028.87 1028.15 1027.37 1026.51 1025.57 1024.95 1024.26 1023.28 1022.43 1021.84 1021.21 1020.76 1020.26 1019.55 1019.10 1018.39 1017.89
1032.50 1032.17 1031.70 1031.11 1030.47 1029.69 1028.85 1028.07 1027.11 1026.13 1025.42 1024.80 1023.71 1022.97 1022.54 1021.90 1021.20 1020.54 1020.15 1019.63 1019.12 1018.23
1033.26 1032.91 1032.53 1032.03 1031.36 1030.49 1029.67 1028.90 1027.87 1026.80 1025.94 1025.22 1024.48 1023.70 1022.97 1022.39 1021.76 1021.21 1020.69 1019.91 1019.46 1019.00
1034.00 1033.81 1033.67 1033.17 1032.42 1031.48 1030.73 1029.78 1028.62 1027.53 1026.74 1025.94 1025.26 1024.47 1023.65 1022.97 1022.30 1021.75 1021.09 1020.71 1020.04 1019.38
1034.80 1034.60 1034.41 1033.95 1033.14 1032.20 1031.31 1030.30 1029.45 1028.54 1027.60 1026.67 1025.76 1024.70 1024.03 1023.41 1022.82 1022.47 1021.95 1021.38 1020.65 1020.03
1035.50 1035.22 1034.88 1034.24 1033.48 1032.50 1031.65 1030.76 1029.91 1029.03 1028.07 1027.09 1025.79 1025.07 1024.46 1023.81 1023.09 1022.55 1022.13 1021.92 1021.19 1020.59
1035.77 1035.46 1035.01 1034.39 1033.65 1032.78 1031.77 1030.81 1029.98 1029.21 1028.41 1027.46 1026.50 1025.89 1024.74 1023.99 1023.35 1022.81 1022.47 1022.12 1021.49 1021.03
1036.26 1035.90 1035.27 1034.49 1033.68 1032.85 1031.97 1031.00 1030.18 1029.44 1028.70 1027.87 1027.03 1026.12 1024.96 1024.11 1023.72 1023.25 1022.81 1022.53 1022.05 1021.72
1036.66 1036.27 1035.50 1034.68 1033.90 1033.01 1032.10 1031.27 1030.35 1029.61 1028.97 1028.23 1027.38 1026.40 1025.27 1024.44 1023.97 1023.59 1023.23 1022.94 1022.44 1021.94
1036.79 1036.36 1035.59 1034.79 1033.93 1033.05 1032.25 1031.51 1030.71 1029.91 1029.25 1028.64 1027.86 1026.98 1025.75 1024.90 1024.36 1023.90 1023.50 1023.19 1022.83 1022.35
1036.85 1036.40 1035.60 1034.68 1033.94 1033.17 1032.39 1031.63 1031.08 1030.34 1029.59 1028.95 1028.37 1027.85 1026.62 1025.63 1025.01 1024.33 1023.90 1023.31 1023.02 1022.49
1036.86 1036.17 1035.37 1034.68 1033.97 1033.31 1032.54 1031.89 1031.34 1030.62 1029.87 1029.27 1028.85 1028.31 1027.20 1026.29 1025.67 1025.30 1024.50 1023.77 1023.25 1022.80
Wind_Speed
14 10 10 11 10 8 9 11 14 14 13 14 15 12 12 8 7 6 4 5 5 1
13 14 13 14 12 10 10 10 13 13 14 14 15 15 13 8 10 9 6 5 4 3
12 13 13 12 14 15 13 13 13 13 14 14 13 15 14 10 9 9 7 7 7 4
12 13 12 12 13 14 14 15 14 13 12 14 13 13 13 13 12 11 9 8 9 6
11 12 13 13 14 15 14 14 14 13 12 12 13 12 13 14 14 13 11 9 8 8
12 12 12 13 14 14 14 13 14 13 13 12 11 12 12 12 13 13 12 12 10 8
11 12 11 12 12 12 12 12 12 12 11 11 10 11 11 11 11 11 11 11 10 10
10 11 10 11 11 12 11 11 11 10 10 11 9 10 14 12 10 11 11 11 11 9
10 11 10 11 10 11 11 10 11 11 10 10 8 19 19 15 10 9 9 9 10 10
10 10 10 11 10 10 11 12 10 10 11 11 10 19 19 16 8 7 8 9 9 8
9 10 10 10 10 10 9 11 11 11 11 12 9 19 18 17 8 7 7 8 9 9
9 9 10 10 11 11 10 10 11 11 11 11 11 19 20 15 8 7 6 6 6 8
9 9 9 11 11 10 10 10 9 11 10 10 11 17 19 15 7 8 7 5 6 10
8 9 9 9 9 10 10 10 10 10 10 9 10 12 18 18 8 8 7 7 6 6
Wind_Direction
13 5 358 352 350 354 354 349 352 352 352 358 354 353 349 356 351 335 315 330 296 306
16 11 2 357 355 353 352 348 349 356 356 359 360 2 350 353 352 347 337 319 310 278
14 10 2 359 359 358 353 350 348 358 357 356 4 3 1 352 352 351 352 340 324 263
11 6 1 1 357 356 353 353 350 353 356 353 3 5 3 0 355 353 350 344 337 333
6 2 359 357 352 352 353 352 352 351 352 355 357 0 5 360 359 355 347 348 340 344
1 357 350 347 344 345 344 344 350 354 354 349 350 353 359 0 0 357 354 348 352 352
353 347 340 335 337 337 338 338 344 345 343 343 335 353 354 355 1 358 354 353 351 353
340 337 329 332 333 331 333 332 333 335 341 346 351 357 348 349 354 1 2 357 355 353
341 336 328 327 328 328 328 333 336 337 341 345 352 348 349 350 347 3 6 357 355 352
345 331 327 328 329 332 331 330 332 338 342 342 344 350 350 349 344 351 4 360 360 345
338 324 328 331 333 334 334 333 333 335 340 337 343 350 353 356 344 342 355 359 360 359
331 323 330 333 337 337 337 336 333 334 336 341 341 354 356 1 344 344 346 345 349 356
329 327 329 339 338 338 338 334 335 334 335 335 347 349 352 358 348 355 342 336 339 359
330 326 344 342 345 345 347 345 342 338 339 343 351 347 351 358 2 349 342 348 347 342